Time,TemperatureF,DewpointF,PressureIn,WindDirection,WindDirectionDegrees,WindSpeedMPH,WindSpeedGustMPH,Humidity,HourlyPrecipIn,Conditions,Clouds,dailyrainin,SoftwareType,DateUTC
2013-01-24 00:03:00,18.0,3.0,30.20,NE,40,5.0,-999.0,52,-99.99,,,-99.99,,2013-01-24 05:03:00,
2013-01-24 00:12:00,18.0,1.0,30.19,NE,40,3.0,-999.0,48,-99.99,,,-99.99,,2013-01-24 05:12:00,
2013-01-24 00:22:00,18.0,1.0,30.18,NE,40,2.0,-999.0,48,-99.99,,,-99.99,,2013-01-24 05:22:00,
2013-01-24 00:33:00,18.0,1.0,30.18,NNE,30,3.0,-999.0,48,-99.99,,,-99.99,,2013-01-24 05:33:00,
2013-01-24 00:42:00,18.0,1.0,30.18,NE,40,1.0,-999.0,48,-99.99,,,-99.99,,2013-01-24 05:42:00,
2013-01-24 00:52:00,18.0,1.0,30.18,NE,40,5.0,-999.0,48,-99.99,,,-99.99,,2013-01-24 05:52:00,
2013-01-24 01:03:00,18.0,1.0,30.18,NE,40,5.0,-999.0,48,-99.99,,,-99.99,,2013-01-24 06:03:00,
2013-01-24 01:12:00,18.0,1.0,30.17,NE,50,3.0,-999.0,48,-99.99,,,-99.99,,2013-01-24 06:12:00,
2013-01-24 01:22:00,18.0,1.0,30.17,ENE,70,3.0,-999.0,48,-99.99,,,-99.99,,2013-01-24 06:22:00,
2013-01-24 01:32:00,18.0,3.0,30.17,East,80,2.0,-999.0,52,-99.99,,,-99.99,,2013-01-24 06:32:00,
2013-01-24 01:42:00,18.0,3.0,30.17,East,100,2.0,-999.0,52,-99.99,,,-99.99,,2013-01-24 06:42:00,
2013-01-24 01:52:00,18.0,3.0,30.17,ESE,110,3.0,-999.0,52,-99.99,,,-99.99,,2013-01-24 06:52:00,
2013-01-24 02:03:00,18.0,3.0,30.17,ESE,110,3.0,-999.0,52,-99.99,,,-99.99,,2013-01-24 07:03:00,
2013-01-24 02:12:00,18.0,5.0,30.17,East,80,1.0,-999.0,57,-99.99,,,-99.99,,2013-01-24 07:12:00,
2013-01-24 02:23:00,18.0,5.0,30.16,ENE,70,2.0,-999.0,57,-99.99,,,-99.99,,2013-01-24 07:23:00,
2013-01-24 02:33:00,18.0,5.0,30.16,ESE,110,2.0,-999.0,57,-99.99,,,-99.99,,2013-01-24 07:33:00,
2013-01-24 02:42:00,18.0,5.0,30.16,SE,140,1.0,-999.0,57,-99.99,,,-99.99,,2013-01-24 07:42:00,
2013-01-24 02:52:00,18.0,5.0,30.16,ESE,110,1.0,-999.0,57,-99.99,,,-99.99,,2013-01-24 07:52:00,
2013-01-24 03:02:00,18.0,5.0,30.16,ESE,110,1.0,-999.0,57,-99.99,,,-99.99,,2013-01-24 08:02:00,
2013-01-24 03:12:00,18.0,5.0,30.14,ENE,60,2.0,-999.0,57,-99.99,,,-99.99,,2013-01-24 08:12:00,
2013-01-24 03:23:00,18.0,5.0,30.14,ENE,60,3.0,-999.0,57,-99.99,,,-99.99,,2013-01-24 08:23:00,
2013-01-24 03:33:00,18.0,5.0,30.13,NE,50,2.0,-999.0,57,-99.99,,,-99.99,,2013-01-24 08:33:00,
2013-01-24 03:43:00,18.0,5.0,30.13,ENE,60,6.0,-999.0,57,-99.99,,,-99.99,,2013-01-24 08:43:00,
2013-01-24 03:52:00,18.0,5.0,30.13,NNE,30,5.0,-999.0,57,-99.99,,,-99.99,,2013-01-24 08:52:00,
2013-01-24 04:03:00,18.0,5.0,30.13,NNE,30,5.0,-999.0,57,-99.99,,,-99.99,,2013-01-24 09:03:00,
2013-01-24 04:13:00,18.0,5.0,30.12,NE,50,5.0,-999.0,57,-99.99,,,-99.99,,2013-01-24 09:13:00,
2013-01-24 04:23:00,18.0,5.0,30.12,NE,40,5.0,-999.0,57,-99.99,,,-99.99,,2013-01-24 09:23:00,
2013-01-24 04:33:00,18.0,5.0,30.12,NE,40,6.0,-999.0,57,-99.99,,,-99.99,,2013-01-24 09:33:00,
2013-01-24 04:43:00,18.0,3.0,30.12,NE,50,5.0,-999.0,52,-99.99,,,-99.99,,2013-01-24 09:43:00,
2013-01-24 04:52:00,18.0,3.0,30.12,NNE,30,3.0,-999.0,52,-99.99,,,-99.99,,2013-01-24 09:52:00,
2013-01-24 05:03:00,18.0,3.0,30.12,NNE,30,3.0,-999.0,52,-99.99,,,-99.99,,2013-01-24 10:03:00,
2013-01-24 05:12:00,18.0,3.0,30.13,NE,40,5.0,-999.0,52,-99.99,,,-99.99,,2013-01-24 10:12:00,
2013-01-24 05:23:00,18.0,1.0,30.13,NNE,30,7.0,-999.0,48,-99.99,,,-99.99,,2013-01-24 10:23:00,
2013-01-24 05:33:00,18.0,3.0,30.14,NE,40,7.0,-999.0,52,-99.99,,,-99.99,,2013-01-24 10:33:00,
2013-01-24 05:43:00,18.0,3.0,30.14,NNE,30,8.0,-999.0,52,-99.99,,,-99.99,,2013-01-24 10:43:00,
2013-01-24 05:52:00,18.0,3.0,30.14,NNE,20,6.0,-999.0,52,-99.99,,,-99.99,,2013-01-24 10:52:00,
2013-01-24 06:03:00,18.0,3.0,30.14,NNE,20,6.0,-999.0,52,-99.99,,,-99.99,,2013-01-24 11:03:00,
2013-01-24 06:12:00,18.0,3.0,30.14,NNE,20,7.0,-999.0,52,-99.99,,,-99.99,,2013-01-24 11:12:00,
2013-01-24 06:23:00,16.0,3.0,30.15,NNE,20,6.0,-999.0,56,-99.99,,,-99.99,,2013-01-24 11:23:00,
2013-01-24 06:33:00,16.0,3.0,30.15,North,0,6.0,-999.0,56,-99.99,,,-99.99,,2013-01-24 11:33:00,
2013-01-24 06:43:00,16.0,3.0,30.16,North,0,8.0,-999.0,56,-99.99,,,-99.99,,2013-01-24 11:43:00,
2013-01-24 06:53:00,16.0,3.0,30.17,NNW,340,5.0,-999.0,56,-99.99,,,-99.99,,2013-01-24 11:53:00,
2013-01-24 07:03:00,16.0,3.0,30.17,NNW,340,5.0,-999.0,56,-99.99,,,-99.99,,2013-01-24 12:03:00,
2013-01-24 07:12:00,16.0,3.0,30.17,NNE,20,7.0,-999.0,56,-99.99,,,-99.99,,2013-01-24 12:12:00,
2013-01-24 07:23:00,16.0,3.0,30.18,NNE,30,6.0,-999.0,56,-99.99,,,-99.99,,2013-01-24 12:23:00,
2013-01-24 07:33:00,16.0,3.0,30.18,NNE,20,10.0,-999.0,56,-99.99,,,-99.99,,2013-01-24 12:33:00,
2013-01-24 07:43:00,16.0,3.0,30.18,North,10,8.0,-999.0,56,-99.99,,,-99.99,,2013-01-24 12:43:00,
2013-01-24 07:53:00,16.0,3.0,30.19,North,10,6.0,-999.0,56,-99.99,,,-99.99,,2013-01-24 12:53:00,
2013-01-24 08:03:00,16.0,3.0,30.19,North,10,6.0,-999.0,56,-99.99,,,-99.99,,2013-01-24 13:03:00,
2013-01-24 08:13:00,16.0,5.0,30.19,North,350,7.0,-999.0,61,-99.99,,,-99.99,,2013-01-24 13:13:00,
2013-01-24 08:23:00,16.0,5.0,30.20,North,0,6.0,-999.0,61,-99.99,,,-99.99,,2013-01-24 13:23:00,
2013-01-24 08:33:00,16.0,5.0,30.20,North,350,8.0,-999.0,61,-99.99,,,-99.99,,2013-01-24 13:33:00,
2013-01-24 08:43:00,18.0,5.0,30.20,North,0,7.0,-999.0,57,-99.99,,,-99.99,,2013-01-24 13:43:00,
2013-01-24 08:53:00,18.0,5.0,30.21,NNW,340,8.0,-999.0,57,-99.99,,,-99.99,,2013-01-24 13:53:00,
2013-01-24 09:03:00,18.0,5.0,30.21,NNW,340,8.0,-999.0,57,-99.99,,,-99.99,,2013-01-24 14:03:00,
2013-01-24 09:12:00,18.0,1.0,30.22,NNE,20,14.0,-999.0,48,-99.99,,,-99.99,,2013-01-24 14:12:00,
2013-01-24 09:23:00,19.0,1.0,30.22,NNW,340,9.0,-999.0,44,-99.99,,,-99.99,,2013-01-24 14:23:00,
2013-01-24 09:33:00,19.0,1.0,30.23,North,0,9.0,20.0,44,-99.99,,,-99.99,,2013-01-24 14:33:00,
2013-01-24 09:43:00,19.0,1.0,30.23,NNE,20,14.0,17.0,44,-99.99,,,-99.99,,2013-01-24 14:43:00,
2013-01-24 09:53:00,19.0,1.0,30.24,North,0,8.0,17.0,44,-99.99,,,-99.99,,2013-01-24 14:53:00,
2013-01-24 10:04:00,19.0,1.0,30.24,North,0,8.0,17.0,44,-99.99,,,-99.99,,2013-01-24 15:04:00,
2013-01-24 10:12:00,21.0,0.0,30.24,NNW,340,15.0,17.0,38,-99.99,,,-99.99,,2013-01-24 15:12:00,
2013-01-24 10:23:00,21.0,0.0,30.25,North,0,12.0,23.0,38,-99.99,,,-99.99,,2013-01-24 15:23:00,
2013-01-24 10:33:00,21.0,0.0,30.25,NNW,340,16.0,23.0,38,-99.99,,,-99.99,,2013-01-24 15:33:00,
2013-01-24 10:43:00,23.0,0.0,30.26,NNW,340,9.0,22.0,35,-99.99,,,-99.99,,2013-01-24 15:43:00,
2013-01-24 10:53:00,23.0,0.0,30.26,North,360,16.0,21.0,35,-99.99,,,-99.99,,2013-01-24 15:53:00,
2013-01-24 11:03:00,23.0,0.0,30.26,North,360,16.0,21.0,35,-99.99,,,-99.99,,2013-01-24 16:03:00,
2013-01-24 11:12:00,23.0,0.0,30.26,NNW,330,16.0,25.0,35,-99.99,,,-99.99,,2013-01-24 16:12:00,
2013-01-24 11:23:00,23.0,0.0,30.27,NNW,330,15.0,18.0,35,-99.99,,,-99.99,,2013-01-24 16:23:00,
2013-01-24 11:33:00,25.0,0.0,30.27,NNE,20,10.0,25.0,32,-99.99,,,-99.99,,2013-01-24 16:33:00,
2013-01-24 11:42:00,25.0,0.0,30.27,NNE,20,10.0,25.0,32,-99.99,,,-99.99,,2013-01-24 16:42:00,
2013-01-24 12:03:00,25.0,0.0,30.27,NNW,330,23.0,25.0,32,-99.99,,,-99.99,,2013-01-24 17:03:00,
2013-01-24 12:12:00,25.0,0.0,30.27,NNW,340,16.0,25.0,32,-99.99,,,-99.99,,2013-01-24 17:12:00,
2013-01-24 12:22:00,25.0,0.0,30.27,North,360,21.0,24.0,32,-99.99,,,-99.99,,2013-01-24 17:22:00,
2013-01-24 12:32:00,27.0,0.0,30.27,NNW,340,20.0,24.0,30,-99.99,,,-99.99,,2013-01-24 17:32:00,
2013-01-24 12:42:00,25.0,0.0,30.27,North,0,16.0,27.0,32,-99.99,,,-99.99,,2013-01-24 17:42:00,
2013-01-24 12:52:00,25.0,0.0,30.28,NNW,340,23.0,25.0,32,-99.99,,,-99.99,,2013-01-24 17:52:00,
2013-01-24 13:02:00,25.0,0.0,30.28,NNW,340,23.0,25.0,32,-99.99,,,-99.99,,2013-01-24 18:02:00,
2013-01-24 13:12:00,27.0,0.0,30.27,NNW,330,21.0,25.0,30,-99.99,,,-99.99,,2013-01-24 18:12:00,
2013-01-24 13:22:00,27.0,0.0,30.27,North,350,14.0,22.0,30,-99.99,,,-99.99,,2013-01-24 18:22:00,
2013-01-24 13:33:00,28.0,0.0,30.28,WNW,300,21.0,23.0,28,-99.99,,,-99.99,,2013-01-24 18:33:00,
2013-01-24 13:42:00,27.0,0.0,30.28,North,350,13.0,21.0,30,-99.99,,,-99.99,,2013-01-24 18:42:00,
2013-01-24 13:53:00,25.0,0.0,30.28,NNW,340,14.0,25.0,32,-99.99,,,-99.99,,2013-01-24 18:53:00,
2013-01-24 14:02:00,25.0,0.0,30.28,NNW,340,14.0,25.0,32,-99.99,,,-99.99,,2013-01-24 19:02:00,
2013-01-24 14:12:00,27.0,0.0,30.29,NNW,330,21.0,24.0,30,-99.99,,,-99.99,,2013-01-24 19:12:00,
2013-01-24 14:22:00,25.0,0.0,30.29,NNW,340,15.0,21.0,32,-99.99,,,-99.99,,2013-01-24 19:22:00,
2013-01-24 14:33:00,25.0,0.0,30.30,NW,320,25.0,25.0,32,-99.99,,,-99.99,,2013-01-24 19:33:00,
2013-01-24 14:42:00,25.0,1.0,30.30,NW,310,14.0,25.0,35,-99.99,,,-99.99,,2013-01-24 19:42:00,
2013-01-24 14:52:00,27.0,0.0,30.31,NNW,340,14.0,28.0,30,-99.99,,,-99.99,,2013-01-24 19:52:00,
2013-01-24 15:02:00,27.0,0.0,30.31,NNW,340,14.0,28.0,30,-99.99,,,-99.99,,2013-01-24 20:02:00,
2013-01-24 15:11:00,25.0,0.0,30.31,NNW,330,17.0,23.0,32,-99.99,,,-99.99,,2013-01-24 20:11:00,
2013-01-24 15:22:00,27.0,0.0,30.32,NW,320,17.0,25.0,30,-99.99,,,-99.99,,2013-01-24 20:22:00,
2013-01-24 15:33:00,25.0,0.0,30.33,NNW,340,14.0,23.0,32,-99.99,,,-99.99,,2013-01-24 20:33:00,
2013-01-24 15:42:00,25.0,0.0,30.33,WNW,300,18.0,22.0,32,-99.99,,,-99.99,,2013-01-24 20:42:00,
2013-01-24 15:52:00,27.0,-2.0,30.33,NNW,340,17.0,24.0,27,-99.99,,,-99.99,,2013-01-24 20:52:00,
2013-01-24 16:02:00,27.0,-2.0,30.33,NNW,340,17.0,24.0,27,-99.99,,,-99.99,,2013-01-24 21:02:00,
2013-01-24 16:12:00,27.0,0.0,30.34,NW,320,15.0,23.0,30,-99.99,,,-99.99,,2013-01-24 21:12:00,
2013-01-24 16:22:00,25.0,0.0,30.34,NNW,340,8.0,-999.0,32,-99.99,,,-99.99,,2013-01-24 21:22:00,
2013-01-24 16:33:00,25.0,-2.0,30.35,NNW,340,13.0,28.0,30,-99.99,,,-99.99,,2013-01-24 21:33:00,
2013-01-24 16:43:00,25.0,-2.0,30.36,North,350,12.0,22.0,30,-99.99,,,-99.99,,2013-01-24 21:43:00,
2013-01-24 16:52:00,25.0,-2.0,30.37,NNW,330,15.0,18.0,30,-99.99,,,-99.99,,2013-01-24 21:52:00,
2013-01-24 17:03:00,25.0,-2.0,30.37,NNW,330,12.0,21.0,30,-99.99,,,-99.99,,2013-01-24 22:03:00,
2013-01-24 17:12:00,25.0,-2.0,30.38,NNW,330,8.0,-999.0,30,-99.99,,,-99.99,,2013-01-24 22:12:00,
2013-01-24 17:22:00,23.0,-2.0,30.38,North,350,17.0,20.0,32,-99.99,,,-99.99,,2013-01-24 22:22:00,
2013-01-24 17:33:00,23.0,-2.0,30.39,NNW,330,12.0,20.0,32,-99.99,,,-99.99,,2013-01-24 22:33:00,
2013-01-24 17:42:00,23.0,-2.0,30.39,NW,320,18.0,20.0,32,-99.99,,,-99.99,,2013-01-24 22:42:00,
2013-01-24 17:52:00,23.0,-2.0,30.40,NNW,340,12.0,-999.0,32,-99.99,,,-99.99,,2013-01-24 22:52:00,
2013-01-24 18:03:00,23.0,-2.0,30.40,NNW,340,12.0,-999.0,32,-99.99,,,-99.99,,2013-01-24 23:03:00,
2013-01-24 18:12:00,23.0,0.0,30.41,NW,320,8.0,-999.0,35,-99.99,,,-99.99,,2013-01-24 23:12:00,
2013-01-24 18:22:00,21.0,0.0,30.42,NW,310,8.0,-999.0,38,-99.99,,,-99.99,,2013-01-24 23:22:00,
2013-01-24 18:32:00,21.0,0.0,30.43,NW,310,5.0,-999.0,38,-99.99,,,-99.99,,2013-01-24 23:32:00,
2013-01-24 18:42:00,21.0,0.0,30.43,NW,310,7.0,-999.0,38,-99.99,,,-99.99,,2013-01-24 23:42:00,
2013-01-24 18:52:00,19.0,0.0,30.44,WNW,300,6.0,-999.0,41,-99.99,,,-99.99,,2013-01-24 23:52:00,
2013-01-24 19:02:00,19.0,0.0,30.44,WNW,300,6.0,-999.0,41,-99.99,,,-99.99,,2013-01-25 00:02:00,
2013-01-24 19:12:00,19.0,0.0,30.44,NW,310,3.0,-999.0,41,-99.99,,,-99.99,,2013-01-25 00:12:00,
2013-01-24 19:22:00,19.0,0.0,30.45,WNW,300,6.0,-999.0,41,-99.99,,,-99.99,,2013-01-25 00:22:00,
2013-01-24 19:32:00,19.0,0.0,30.45,WNW,290,3.0,-999.0,41,-99.99,,,-99.99,,2013-01-25 00:32:00,
2013-01-24 19:42:00,19.0,0.0,30.45,WNW,300,3.0,-999.0,41,-99.99,,,-99.99,,2013-01-25 00:42:00,
2013-01-24 19:52:00,18.0,0.0,30.46,West,270,2.0,-999.0,44,-99.99,,,-99.99,,2013-01-25 00:52:00,
2013-01-24 20:02:00,18.0,0.0,30.46,West,270,2.0,-999.0,44,-99.99,,,-99.99,,2013-01-25 01:02:00,
2013-01-24 20:12:00,18.0,0.0,30.46,West,280,3.0,-999.0,44,-99.99,,,-99.99,,2013-01-25 01:12:00,
2013-01-24 20:22:00,18.0,0.0,30.46,NW,310,5.0,-999.0,44,-99.99,,,-99.99,,2013-01-25 01:22:00,
2013-01-24 20:32:00,18.0,0.0,30.46,WNW,290,3.0,-999.0,44,-99.99,,,-99.99,,2013-01-25 01:32:00,
2013-01-24 20:42:00,18.0,0.0,30.46,West,270,2.0,-999.0,44,-99.99,,,-99.99,,2013-01-25 01:42:00,
2013-01-24 20:52:00,18.0,0.0,30.46,NW,310,3.0,-999.0,44,-99.99,,,-99.99,,2013-01-25 01:52:00,
2013-01-24 21:02:00,18.0,0.0,30.46,NW,310,3.0,-999.0,44,-99.99,,,-99.99,,2013-01-25 02:02:00,
2013-01-24 21:11:00,18.0,0.0,30.46,WNW,290,2.0,-999.0,44,-99.99,,,-99.99,,2013-01-25 02:11:00,
2013-01-24 21:22:00,18.0,0.0,30.45,NNW,340,6.0,-999.0,44,-99.99,,,-99.99,,2013-01-25 02:22:00,
2013-01-24 21:32:00,18.0,0.0,30.46,NW,320,7.0,-999.0,44,-99.99,,,-99.99,,2013-01-25 02:32:00,
2013-01-24 21:42:00,18.0,0.0,30.46,NNW,330,5.0,-999.0,44,-99.99,,,-99.99,,2013-01-25 02:42:00,
2013-01-24 21:52:00,18.0,0.0,30.46,NW,320,3.0,-999.0,44,-99.99,,,-99.99,,2013-01-25 02:52:00,
2013-01-24 22:02:00,18.0,0.0,30.46,NW,320,3.0,-999.0,44,-99.99,,,-99.99,,2013-01-25 03:02:00,
2013-01-24 22:12:00,18.0,0.0,30.47,West,280,3.0,-999.0,44,-99.99,,,-99.99,,2013-01-25 03:12:00,
2013-01-24 22:22:00,16.0,0.0,30.47,WNW,300,2.0,-999.0,48,-99.99,,,-99.99,,2013-01-25 03:22:00,
2013-01-24 22:33:00,16.0,0.0,30.47,WNW,300,3.0,-999.0,48,-99.99,,,-99.99,,2013-01-25 03:33:00,
2013-01-24 22:42:00,16.0,1.0,30.47,WNW,300,3.0,-999.0,52,-99.99,,,-99.99,,2013-01-25 03:42:00,
2013-01-24 22:52:00,16.0,1.0,30.47,NW,310,3.0,-999.0,52,-99.99,,,-99.99,,2013-01-25 03:52:00,
2013-01-24 23:02:00,16.0,1.0,30.47,NW,310,3.0,-999.0,52,-99.99,,,-99.99,,2013-01-25 04:02:00,
2013-01-24 23:12:00,18.0,1.0,30.47,NW,320,3.0,-999.0,48,-99.99,,,-99.99,,2013-01-25 04:12:00,
2013-01-24 23:22:00,16.0,1.0,30.47,NNW,330,2.0,-999.0,52,-99.99,,,-99.99,,2013-01-25 04:22:00,
2013-01-24 23:32:00,16.0,1.0,30.47,NW,320,2.0,-999.0,52,-99.99,,,-99.99,,2013-01-25 04:32:00,
2013-01-24 23:42:00,16.0,1.0,30.47,NW,320,3.0,-999.0,52,-99.99,,,-99.99,,2013-01-25 04:42:00,
2013-01-24 23:51:00,16.0,1.0,30.47,WNW,300,3.0,-999.0,52,-99.99,,,-99.99,,2013-01-25 04:51:00,